Terminal Aerodrome Forecast
Issued by NWS Cleveland, OH

Home | Current Version | Previous Version | Graphics & Text | Print | Product List | Glossary Off
Versions: 1 2 3 4 5 6 7 8 9 10 11 12 13 14 15 16 17 18

425
FTUS41 KCLE 221731 CCA
TAFCAK
TAF COR
KCAK 221731Z 2218/2318 31010KT P6SM OVC025
     FM222000 30008KT P6SM OVC035
     FM230000 28003KT P6SM SCT035
     FM231400 22008KT P6SM BKN035 OVC100=

USA.gov is the U.S. government's official web portal to all federal, state and local government web resources and services.